Location: Seattle
(47.6064°N, 122.3308°W)
Time: 03:14:30
(UTC-08:00)

N. Korean satellite - Pass Details

Date: 01 November 2020
Orbit: 453 x 503 km, 97.2° (Epoch: 03 December)

Event Time Altitude Azimuth Distance (km) Brightness Sun altitude
Rises 06:10:39 0° 7° (N) 2,480 10.1 -7.9°
Reaches altitude 10° 06:12:45 10° 1° (N) 1,600 9.1 -7.5°
Maximum altitude 06:16:02 45° 288° (WNW) 629 6.7 -7.0°
Drops below altitude 10° 06:19:18 10° 214° (SW) 1,592 9.0 -6.5°
Sets 06:21:23 0° 208° (SSW) 2,465 10.0 -6.1°
